User: anonymous   Login
Location: Unspecified
(0.0000°N, 0.0000°E)
Time: 08:36:26
(UTC+00:00)
Language:

Himawari - Orbit

View from above orbital plane
View from above orbital plane
View from above satellite
View from above satellite

Ground track
Ground track

The orbit data is extracted from the following two-line orbital elements,

1 10143U 77065A   17294.11665919  .00000056  00000-0  00000+0 0  9995
2 10143  13.2482 325.7936 0015495 171.4315 162.5220  0.99247716 89833
Epoch (UTC): 21 October 2017 02:47:59
Eccentricity: 0.0015495
inclination: 13.2482°
perigee height: 36010 km
apogee height: 36141 km
right ascension of ascending node: 325.7936°
argument of perigee: 171.4315°
revolutions per day: 0.99247716
mean anomaly at epoch: 162.5220°
orbit number at epoch: 8983

The dashed part of the orbit path shows where the satellite is in the earth's shadow,  

DLR